When you browse on this site, cookies collect data to enhance your experience and personalize the content and advertising you see.
Visit our Privacy Policy to learn more. By continuing to use the site, you agree to this use of cookies and data.
  • Em Portugal
  • Lista de países
  • Para 7 dias
  • Temperatura da água
  • Mapas de satélite
  • Mapa do tempo
  • Widgets de tempo
  • user-avatar
    Iniciar Sessão

    Previsão horária em Weglew

    Hoje, 16 Junho, Domingo

    Tempo Temperatura Precipitação Vento Pressão Humidade
    00:00 +19°C° 0.1 mm 3 m/s 751 mmHg 91%
    01:00 +19°C° 0 mm 2 m/s 751 mmHg 90%
    02:00 +19°C° 0.1 mm 3 m/s 751 mmHg 91%
    03:00 +19°C° 0.1 mm 3 m/s 751 mmHg 91%
    04:00 +19°C° 0.1 mm 4 m/s 751 mmHg 92%
    05:00 +20°C° 0 mm 4 m/s 752 mmHg 90%
    06:00 +20°C° 0 mm 4 m/s 752 mmHg 87%
    07:00 +21°C° 0 mm 4 m/s 753 mmHg 85%
    08:00 +21°C° 0 mm 4 m/s 753 mmHg 83%
    09:00 +21°C° 0 mm 5 m/s 753 mmHg 81%
    10:00 +22°C° 0 mm 5 m/s 754 mmHg 79%
    11:00 +22°C° 0 mm 5 m/s 754 mmHg 78%
    12:00 +22°C° 0 mm 5 m/s 754 mmHg 76%
    13:00 +22°C° 0 mm 5 m/s 755 mmHg 75%
    14:00 +22°C° 0 mm 5 m/s 755 mmHg 74%
    15:00 +22°C° 0 mm 6 m/s 755 mmHg 73%
    16:00 +22°C° 0 mm 6 m/s 755 mmHg 72%
    17:00 +21°C° 0 mm 5 m/s 755 mmHg 74%
    18:00 +21°C° 0 mm 4 m/s 755 mmHg 76%
    19:00 +20°C° 0 mm 3 m/s 756 mmHg 78%
    20:00 +19°C° 0 mm 3 m/s 756 mmHg 80%
    21:00 +17°C° 0 mm 3 m/s 756 mmHg 82%
    22:00 +16°C° 0 mm 3 m/s 757 mmHg 85%
    23:00 +14°C° 0 mm 3 m/s 757 mmHg 86%

    Amanhã, 17 Junho, Segunda-feira

    Tempo Temperatura Precipitação Vento Pressão Humidade
    00:00 +14°C° 0 mm 3 m/s 757 mmHg 87%
    01:00 +13°C° 0 mm 3 m/s 757 mmHg 88%
    02:00 +13°C° 0 mm 3 m/s 757 mmHg 88%
    03:00 +12°C° 0 mm 3 m/s 757 mmHg 88%
    04:00 +12°C° 0 mm 3 m/s 757 mmHg 87%
    05:00 +13°C° 0 mm 3 m/s 757 mmHg 83%
    06:00 +16°C° 0 mm 3 m/s 757 mmHg 79%
    07:00 +17°C° 0 mm 3 m/s 758 mmHg 75%
    08:00 +19°C° 0 mm 3 m/s 758 mmHg 70%
    09:00 +20°C° 0 mm 4 m/s 758 mmHg 65%
    10:00 +22°C° 0 mm 4 m/s 758 mmHg 61%
    11:00 +22°C° 0 mm 4 m/s 758 mmHg 58%
    12:00 +23°C° 0 mm 4 m/s 758 mmHg 56%
    13:00 +25°C° 0 mm 4 m/s 758 mmHg 54%
    14:00 +25°C° 0 mm 3 m/s 757 mmHg 55%
    15:00 +25°C° 0 mm 3 m/s 757 mmHg 56%
    16:00 +25°C° 0 mm 3 m/s 757 mmHg 56%
    17:00 +24°C° 0 mm 3 m/s 757 mmHg 63%
    18:00 +22°C° 0 mm 3 m/s 757 mmHg 70%
    19:00 +21°C° 0 mm 2 m/s 757 mmHg 76%
    20:00 +19°C° 0 mm 2 m/s 757 mmHg 77%
    21:00 +18°C° 0 mm 2 m/s 757 mmHg 78%
    22:00 +16°C° 0 mm 2 m/s 758 mmHg 78%
    23:00 +16°C° 0 mm 2 m/s 757 mmHg 78%

    Depois de amanhã, 18 Junho, Terça-feira

    Tempo Temperatura Precipitação Vento Pressão Humidade
    00:00 +14°C° 0 mm 3 m/s 757 mmHg 78%
    01:00 +14°C° 0 mm 3 m/s 757 mmHg 78%
    02:00 +13°C° 0 mm 3 m/s 757 mmHg 80%
    03:00 +13°C° 0 mm 3 m/s 757 mmHg 82%
    04:00 +13°C° 0 mm 3 m/s 757 mmHg 85%
    05:00 +14°C° 0 mm 3 m/s 757 mmHg 82%
    06:00 +17°C° 0 mm 3 m/s 757 mmHg 80%
    07:00 +18°C° 0 mm 3 m/s 757 mmHg 78%
    08:00 +19°C° 0 mm 3 m/s 757 mmHg 73%
    09:00 +21°C° 0 mm 4 m/s 757 mmHg 68%
    10:00 +22°C° 0 mm 4 m/s 757 mmHg 63%
    11:00 +25°C° 0 mm 4 m/s 756 mmHg 66%
    12:00 +25°C° 0 mm 4 m/s 756 mmHg 64%
    13:00 +26°C° 0 mm 4 m/s 755 mmHg 62%
    14:00 +26°C° 0 mm 4 m/s 755 mmHg 63%
    15:00 +26°C° 0 mm 4 m/s 755 mmHg 63%
    16:00 +26°C° 0 mm 4 m/s 754 mmHg 63%
    17:00 +25°C° 0 mm 3 m/s 754 mmHg 68%
    18:00 +25°C° 0 mm 3 m/s 754 mmHg 73%
    19:00 +24°C° 0 mm 3 m/s 754 mmHg 78%
    20:00 +22°C° 0 mm 3 m/s 754 mmHg 80%
    21:00 +21°C° 0 mm 3 m/s 754 mmHg 81%
    22:00 +20°C° 0 mm 3 m/s 754 mmHg 83%
    23:00 +20°C° 0 mm 3 m/s 754 mmHg 83%

    19 Junho, Quarta-feira

    Tempo Temperatura Precipitação Vento Pressão Humidade
    00:00 +19°C° 0 mm 3 m/s 753 mmHg 83%
    01:00 +19°C° 0 mm 3 m/s 753 mmHg 84%
    02:00 +19°C° 0 mm 3 m/s 753 mmHg 87%
    03:00 +18°C° 0 mm 3 m/s 753 mmHg 90%
    04:00 +18°C° 0 mm 3 m/s 752 mmHg 93%
    05:00 +19°C° 0 mm 3 m/s 752 mmHg 90%
    06:00 +21°C° 0 mm 3 m/s 752 mmHg 87%
    07:00 +22°C° 0 mm 3 m/s 752 mmHg 84%
    08:00 +24°C° 0.1 mm 3 m/s 752 mmHg 80%
    09:00 +25°C° 0.1 mm 3 m/s 752 mmHg 75%
    10:00 +27°C° 0.1 mm 3 m/s 752 mmHg 71%
    11:00 +27°C° 0.5 mm 3 m/s 751 mmHg 69%
    12:00 +28°C° 0.5 mm 3 m/s 751 mmHg 67%
    13:00 +28°C° 0.5 mm 3 m/s 750 mmHg 65%
    14:00 +28°C° 0.2 mm 2 m/s 750 mmHg 65%
    15:00 +28°C° 0.2 mm 2 m/s 750 mmHg 65%
    16:00 +28°C° 0.2 mm 1 m/s 750 mmHg 64%
    17:00 +27°C° 0.1 mm 1 m/s 750 mmHg 69%
    18:00 +27°C° 0.1 mm 1 m/s 749 mmHg 74%
    19:00 +26°C° 0.1 mm 2 m/s 749 mmHg 78%
    20:00 +25°C° 0.1 mm 2 m/s 749 mmHg 80%
    21:00 +23°C° 0.1 mm 2 m/s 750 mmHg 82%
    22:00 +21°C° 0.1 mm 2 m/s 750 mmHg 83%
    23:00 +21°C° 0 mm 2 m/s 750 mmHg 85%

    20 Junho, Quinta-feira

    Tempo Temperatura Precipitação Vento Pressão Humidade
    00:00 +20°C° 0 mm 2 m/s 749 mmHg 86%
    01:00 +20°C° 0 mm 2 m/s 749 mmHg 88%
    02:00 +20°C° 0 mm 2 m/s 749 mmHg 88%
    03:00 +20°C° 0 mm 2 m/s 749 mmHg 89%
    04:00 +19°C° 0 mm 2 m/s 749 mmHg 89%
    05:00 +21°C° 0 mm 2 m/s 750 mmHg 85%
    06:00 +23°C° 0 mm 2 m/s 750 mmHg 82%
    07:00 +24°C° 0 mm 2 m/s 750 mmHg 78%
    08:00 +26°C° 0.1 mm 2 m/s 750 mmHg 73%
    09:00 +27°C° 0.1 mm 2 m/s 750 mmHg 67%
    10:00 +29°C° 0.1 mm 2 m/s 750 mmHg 62%
    11:00 +29°C° 0 mm 2 m/s 750 mmHg 57%
    12:00 +30°C° 0 mm 2 m/s 750 mmHg 53%
    13:00 +31°C° 0 mm 2 m/s 750 mmHg 48%
    14:00 +31°C° 0 mm 1 m/s 750 mmHg 47%
    15:00 +31°C° 0 mm 1 m/s 750 mmHg 46%
    16:00 +31°C° 0 mm 1 m/s 750 mmHg 46%
    17:00 +29°C° 0 mm 1 m/s 750 mmHg 53%
    18:00 +28°C° 0 mm 2 m/s 750 mmHg 61%
    19:00 +26°C° 0 mm 2 m/s 750 mmHg 68%
    20:00 +24°C° 0.4 mm 2 m/s 751 mmHg 73%
    21:00 +23°C° 0.4 mm 1 m/s 751 mmHg 78%
    22:00 +21°C° 0.4 mm 1 m/s 752 mmHg 84%
    23:00 +21°C° 0.1 mm 1 m/s 752 mmHg 85%

    21 Junho, Sexta-feira

    Tempo Temperatura Precipitação Vento Pressão Humidade
    00:00 +20°C° 0.1 mm 1 m/s 752 mmHg 86%
    01:00 +18°C° 0.1 mm 0 m/s 752 mmHg 87%
    02:00 +20°C° 0.1 mm 1 m/s 752 mmHg 88%
    03:00 +20°C° 0.1 mm 1 m/s 752 mmHg 88%
    04:00 +20°C° 0.1 mm 1 m/s 752 mmHg 89%
    05:00 +21°C° 0 mm 1 m/s 752 mmHg 85%
    06:00 +22°C° 0 mm 1 m/s 753 mmHg 81%
    07:00 +24°C° 0 mm 1 m/s 753 mmHg 77%
    08:00 +25°C° 0 mm 1 m/s 753 mmHg 73%
    09:00 +26°C° 0 mm 2 m/s 753 mmHg 68%
    10:00 +27°C° 0 mm 2 m/s 753 mmHg 64%
    11:00 +28°C° 0 mm 2 m/s 753 mmHg 62%
    12:00 +29°C° 0 mm 2 m/s 752 mmHg 59%
    13:00 +30°C° 0 mm 2 m/s 752 mmHg 57%
    14:00 +30°C° 0.2 mm 2 m/s 752 mmHg 57%
    15:00 +30°C° 0.2 mm 2 m/s 751 mmHg 57%
    16:00 +30°C° 0.2 mm 2 m/s 751 mmHg 58%
    17:00 +28°C° 1.3 mm 2 m/s 751 mmHg 65%
    18:00 +27°C° 1.3 mm 2 m/s 751 mmHg 72%
    19:00 +26°C° 1.3 mm 3 m/s 751 mmHg 79%
    20:00 +23°C° 4 mm 4 m/s 751 mmHg 84%
    21:00 +22°C° 4 mm 5 m/s 751 mmHg 90%
    22:00 +21°C° 4 mm 6 m/s 751 mmHg 95%
    23:00 +20°C° 2.7 mm 5 m/s 751 mmHg 96%
    Mostrar mais